Location: Gro�sch�nbrunn
(49.5760°N, 11.8868°E)
Time: 05:20:23
(UTC+00:00)

Cosmos 1536 Rocket - Pass Details

Date: 18 September 2020
Orbit: 606 x 631 km, 82.5° (Epoch: 20 October)

Event Time Altitude Azimuth Distance (km) Brightness Sun altitude
Rises 18:31:15 0° 354° (N) 2,913 7.3 -12.4°
Reaches altitude 10° 18:33:33 10° 0° (N) 2,006 6.4 -12.8°
Maximum altitude 18:37:52 48° 76° (ENE) 822 3.8 -13.4°
Enters shadow 18:41:16 16° 147° (SSE) 1,666 5.3 -14.0°
